User: anonymous   Login
Location: Meriden
(44.0740°N, 93.3870°W)
Time: 02:51:58
(UTC-06:00)
Language:

Hamsat - Orbit

View from above orbital plane
View from above orbital plane
View from above satellite
View from above satellite

Ground track
Ground track

The orbit data is extracted from the following two-line orbital elements,

1 28650U 05017B   15060.70207799  .00003423  00000-0  38710-3 0  9991
2 28650 097.5700 058.1034 0025241 031.0277 329.2424 14.86865290531471
Epoch (UTC): 01 March 2015 16:50:59
Eccentricity: 0.0025241
inclination: 97.5700°
perigee height: 590 km
apogee height: 625 km
right ascension of ascending node: 58.1034°
argument of perigee: 31.0277°
revolutions per day: 14.86865290
mean anomaly at epoch: 329.2424°
orbit number at epoch: 53147

The dashed part of the orbit path shows where the satellite is in the earth's shadow,  

DLR